This is the latest recevied weather packets stored in our database for station/object WA1OUI. If no packets are shown the sender has not sent any weather packets the latest 10 day(s).
| Time | Temp. | Humidity | Pressure | Rain* | Wind** | Luminosity | Snow |
|---|---|---|---|---|---|---|---|
| 1777796968 | 4.44° C | 68% | 1007.9 hPa | 0 mm | - | 0 W/m² | - |
| 1777796665 | 4.44° C | 68% | 1007.8 hPa | 0 mm | - | 0 W/m² | - |
| 1777796361 | 5° C | 67% | 1008 hPa | 0 mm | - | 0 W/m² | - |
| 1777796056 | 5° C | 66% | 1007.9 hPa | 0 mm | - | 0 W/m² | - |
| 1777795753 | 5° C | 66% | 1008 hPa | 0 mm | - | 0 W/m² | - |
| 1777795450 | 5° C | 66% | 1008 hPa | 0 mm | - | 0 W/m² | - |
| 1777795146 | 5° C | 67% | 1008.1 hPa | 0 mm | - | 0 W/m² | - |
| 1777794842 | 5° C | 65% | 1008.1 hPa | 0 mm | - | 0 W/m² | - |
| 1777794539 | 5° C | 65% | 1008 hPa | 0 mm | - | 0 W/m² | - |
| 1777793931 | 5° C | 65% | 1008.2 hPa | 0 mm | - | 0 W/m² | - |
| 1777793628 | 5.56° C | 65% | 1008.1 hPa | 0 mm | - | 0 W/m² | - |
| 1777793326 | 5.56° C | 64% | 1008.3 hPa | 0 mm | - | 0 W/m² | - |
| 1777793023 | 5.56° C | 65% | 1008.4 hPa | 0 mm | - | 0 W/m² | - |
| 1777792720 | 5.56° C | 63% | 1008.2 hPa | 0 mm | - | 0 W/m² | - |
| 1777792417 | 5.56° C | 60% | 1008.5 hPa | 0 mm | - | 0 W/m² | - |
| 1777792113 | 5.56° C | 64% | 1008.2 hPa | 0 mm | - | 0 W/m² | - |
| 1777791811 | 5.56° C | 65% | 1008.4 hPa | 0 mm | - | 0 W/m² | - |
| 1777791509 | 5.56° C | 63% | 1008.5 hPa | 0 mm | - | 0 W/m² | - |
| 1777791206 | 5.56° C | 64% | 1008.4 hPa | 0 mm | - | 0 W/m² | - |
| 1777790903 | 5.56° C | 65% | 1008.4 hPa | 0 mm | - | 0 W/m² | - |
| 1777790601 | 5.56° C | 65% | 1008.5 hPa | 0 mm | - | 0 W/m² | - |
| 1777790297 | 5.56° C | 66% | 1008.6 hPa | 0 mm | - | 0 W/m² | - |
| 1777789996 | 5.56° C | 66% | 1008.6 hPa | 0 mm | - | 0 W/m² | - |
| 1777789694 | 5.56° C | 63% | 1008.6 hPa | 0 mm | - | 0 W/m² | - |
| 1777789393 | 5.56° C | 65% | 1008.6 hPa | 0 mm | - | 0 W/m² | - |
* Rain latest hour (hover to see other rain measurements)
** Current wind speed in m/s (hover to see current wind gust speed)